CAPE
1046 1233 794 1218 784 701 814 1201 975 649 555 275 204 100 267 187 77 74 68 252 743 387 566 1262 1207 801 920 546 305 279 513 353 19 107 737 274 74 700 299 423 331 259 173
793 791 513 792 1109 522 875 879 920 398 128 124 42 143 232 217 173 317 98 238 795 246 30 662 745 848 917 747 547 400 625 854 413 102 312 364 182 233 286 242 206 549 505
698 615 652 491 665 723 278 223 575 622 328 130 28 15 93 151 149 241 194 318 967 153 0 1 327 962 842 820 565 324 267 475 457 398 470 222 97 131 235 243 590 501 387
627 774 794 593 791 637 430 132 23 414 294 146 27 0 4 80 86 115 245 162 160 135 63 73 245 501 525 802 835 672 534 412 551 371 409 646 673 483 328 266 127 124 186
573 750 621 685 754 705 506 190 3 1 153 158 111 103 233 240 173 68 99 176 68 189 260 205 382 288 423 684 520 653 811 655 404 175 77 134 276 530 581 274 183 145 75
601 587 586 578 634 675 563 500 274 0 35 81 146 263 308 335 257 111 63 35 166 235 321 323 245 313 327 433 430 459 470 384 355 242 207 186 191 141 133 336 189 155 175
873 747 635 521 483 555 581 730 692 495 257 262 380 311 290 362 311 344 252 152 83 67 121 165 218 317 265 371 452 444 530 390 358 284 309 289 224 220 189 141 138 154 171
758 749 698 572 474 456 477 544 570 536 454 369 316 233 272 227 160 169 188 247 275 302 237 228 221 227 236 293 369 398 487 492 483 508 412 368 331 285 260 187 156 162 204
746 680 696 681 489 456 371 268 453 428 467 295 287 311 191 184 87 33 51 93 140 169 246 332 342 282 296 373 422 450 606 629 684 681 609 578 569 527 455 341 263 313 316
824 782 771 708 533 450 499 320 359 435 370 367 309 313 167 81 97 36 38 60 149 142 151 203 348 438 441 444 461 527 515 585 734 898 823 675 618 666 592 434 301 267 10
857 844 818 660 504 391 479 514 378 393 361 383 329 308 294 214 113 138 105 110 89 103 173 141 181 237 309 394 492 589 598 636 409 687 913 825 708 628 562 346 259 32 1
703 758 830 736 624 469 345 389 444 439 410 432 349 251 315 332 276 195 143 136 94 41 25 37 62 86 88 128 131 99 126 169 176 670 890 858 563 609 486 339 178 72 72
603 788 806 759 633 515 412 311 241 322 381 377 383 357 313 313 234 155 102 72 38 40 66 60 82 75 58 80 129 140 178 202 439 644 668 483 327 289 160 34 0 0 1
632 720 632 635 640 543 475 423 376 313 276 285 278 269 351 280 272 216 182 126 42 102 74 68 81 91 96 83 114 78 221 399 411 308 280 187 113 41 2 0 0 0 0
646 651 621 615 593 548 469 452 444 377 323 270 238 210 208 198 197 220 225 206 176 77 51 84 69 56 62 57 53 112 137 216 184 136 120 67 23 4 0 0 0 0 0
503 635 613 577 496 495 436 413 398 373 349 296 251 219 219 252 237 243 291 300 302 316 152 83 56 36 58 67 37 51 63 42 71 68 54 33 18 0 0 0 0 0 0
641 603 628 585 565 573 525 433 433 474 427 407 349 325 304 290 360 343 325 339 301 230 241 126 35 60 61 34 24 71 77 75 116 80 59 12 0 0 0 0 0 0 0
600 772 727 761 861 758 618 516 505 591 423 382 298 273 324 315 294 289 309 305 236 172 181 90 21 32 59 42 54 62 53 26 56 24 0 0 0 0 0 0 0 0 0
395 614 707 791 791 825 606 529 557 532 373 427 428 334 296 231 257 254 272 292 225 160 123 66 35 3 9 37 55 45 40 15 4 0 0 0 0 0 0 0 0 0 0
156 320 429 628 685 562 535 544 533 448 392 489 414 313 234 237 212 231 218 242 289 173 118 92 48 27 11 17 36 38 25 15 12 0 0 0 0 0 0 0 0 0 0
79 10 146 160 154 289 389 385 333 323 377 483 436 259 300 233 197 296 232 144 240 198 155 96 58 27 45 24 20 4 17 2 3 0 1 0 1 0 0 0 0 0 0
32 11 10 25 87 124 109 104 180 259 320 415 280 324 387 269 238 221 238 187 241 230 144 90 40 42 26 20 12 0 0 0 1 0 0 0 0 0 0 0 0 0 0
0 0 0 0 0 0 0 13 8 112 176 246 269 266 225 293 222 279 204 185 181 165 215 103 113 79 67 0 0 0 0 0 0 0 0 0 0 0 0 0 0 0 0
1 2 1 1 0 0 0 0 4 74 142 199 223 238 222 286 302 280 277 247 219 215 132 122 177 218 158 89 15 0 0 1 1 0 0 0 0 0 0 0 0 0 0
0 1 6 6 0 0 7 0 2 34 83 84 105 137 203 233 219 165 266 323 312 232 126 84 141 153 110 65 34 0 0 0 0 0 0 2 0 0 0 0 0 0 0
0 0 4 0 1 35 16 9 69 117 106 102 67 67 58 82 155 86 136 277 300 304 186 155 89 42 42 53 0 40 17 0 0 0 0 0 0 0 0 1 0 1 0
CIN
-11 -5 -12 -3 -14 -22 -12 -3 -4 -23 -31 -49 -75 -79 -57 -61 -84 -92 -121 -109 -67 -61 -39 -2 -3 -14 -1 -13 -33 -34 -8 -21 -76 -46 -0 -16 -82 -0 -5 -1 -0 -3 -14
-38 -38 -60 -24 -5 -47 -16 -12 -15 -47 -67 -87 -129 -74 -63 -67 -70 -75 -111 -101 -70 -71 -29 -38 -37 -30 -19 -19 -31 -36 -15 -1 -29 -60 -33 -13 -35 -18 -8 -7 -9 -0 -2
-56 -63 -54 -66 -47 -36 -69 -66 -30 -32 -53 -104 -156 -134 -103 -80 -69 -73 -90 -82 -70 -78 -0 -8 -69 -36 -36 -26 -47 -65 -60 -28 -30 -41 -25 -42 -69 -54 -25 -18 -0 -3 -3
-73 -45 -32 -47 -31 -37 -64 -119 -183 -51 -67 -91 -141 -0 -9 -92 -71 -75 -78 -77 -85 -78 -85 -83 -77 -59 -47 -35 -31 -40 -48 -53 -37 -51 -39 -12 -8 -12 -25 -26 -39 -31 -15
-99 -54 -56 -44 -35 -27 -48 -106 -26 -147 -87 -83 -90 -91 -71 -64 -65 -71 -73 -76 -91 -61 -64 -67 -54 -60 -48 -45 -33 -26 -25 -37 -54 -78 -83 -73 -43 -15 -11 -28 -48 -36 -41
-108 -91 -78 -60 -43 -32 -43 -50 -81 -0 -116 -84 -71 -56 -54 -58 -68 -81 -84 -93 -74 -65 -63 -62 -66 -50 -38 -42 -39 -36 -36 -42 -54 -53 -48 -55 -58 -55 -43 -32 -33 -33 -30
-80 -76 -77 -73 -67 -55 -51 -42 -39 -43 -60 -76 -47 -50 -57 -55 -59 -60 -75 -96 -113 -102 -98 -87 -84 -62 -54 -50 -44 -31 -37 -27 -34 -39 -41 -46 -43 -44 -44 -37 -35 -30 -29
-103 -83 -79 -86 -84 -71 -63 -52 -48 -43 -58 -76 -31 -49 -24 -33 -61 -63 -70 -66 -64 -69 -92 -88 -72 -66 -75 -61 -59 -43 -30 -21 -19 -28 -30 -31 -41 -41 -37 -34 -30 -28 -26
-85 -90 -83 -77 -91 -82 -78 -91 -72 -58 -43 -87 -69 -29 -40 -44 -86 -109 -108 -115 -100 -89 -82 -80 -76 -83 -74 -68 -69 -63 -46 -39 -35 -33 -23 -25 -25 -26 -27 -21 -19 -18 -24
-67 -77 -74 -73 -77 -84 -72 -86 -72 -61 -61 -46 -60 -66 -65 -83 -58 -82 -130 -117 -124 -110 -107 -98 -84 -79 -80 -82 -78 -70 -56 -55 -50 -42 -30 -26 -16 -17 -20 -20 -19 -19 -52
-61 -68 -73 -77 -71 -80 -62 -65 -71 -65 -70 -50 -42 -47 -44 -49 -76 -37 -77 -74 -103 -89 -86 -97 -81 -89 -95 -108 -102 -83 -67 -70 -70 -66 -56 -40 -18 -11 -16 -27 -29 -35 -6
-69 -69 -70 -74 -68 -66 -70 -59 -62 -53 -50 -44 -47 -50 -29 -30 -31 -36 -31 -51 -50 -105 -97 -95 -89 -98 -101 -104 -117 -113 -107 -93 -78 -77 -73 -46 -30 -20 -29 -35 -38 -38 -30
-88 -72 -72 -68 -66 -66 -61 -71 -63 -51 -42 -41 -42 -39 -49 -41 -43 -39 -40 -67 -71 -112 -103 -111 -105 -97 -89 -93 -94 -94 -93 -95 -62 -67 -67 -61 -51 -46 -55 -79 -21 -0 -26
-69 -74 -77 -71 -67 -69 -65 -63 -58 -53 -54 -37 -30 -42 -41 -49 -44 -50 -34 -38 -60 -60 -85 -116 -140 -114 -91 -79 -77 -81 -69 -65 -46 -47 -71 -72 -78 -87 -28 -0 -0 -0 -0
-69 -59 -56 -55 -59 -68 -71 -69 -63 -50 -49 -38 -35 -42 -40 -53 -65 -57 -56 -43 -18 -36 -94 -104 -96 -131 -100 -90 -77 -59 -56 -74 -70 -70 -64 -80 -97 -96 -0 -0 -0 -0 -0
-70 -81 -52 -53 -59 -75 -81 -79 -66 -60 -44 -42 -41 -46 -45 -50 -56 -61 -43 -30 -15 -0 -18 -60 -78 -101 -114 -102 -46 -40 -52 -76 -69 -67 -78 -82 -86 -0 -0 -0 -0 -0 -0
-67 -75 -66 -62 -63 -70 -79 -75 -60 -56 -45 -37 -39 -40 -37 -39 -35 -26 -26 -30 -29 -9 -2 -31 -66 -47 -70 -58 -44 -27 -47 -47 -30 -35 -36 -56 -35 -0 -0 -0 -0 -0 -0
-44 -34 -33 -49 -57 -62 -70 -64 -59 -52 -56 -48 -52 -43 -48 -30 -29 -30 -13 -30 -47 -53 -18 -25 -83 -62 -44 -55 -45 -41 -53 -45 -37 -33 -2 -0 -0 -0 -0 -0 -0 -0 -0
-80 -69 -43 -43 -50 -58 -52 -59 -55 -48 -48 -49 -37 -30 -50 -37 -38 -27 -18 -25 -46 -63 -68 -73 -99 -108 -90 -66 -50 -52 -62 -87 -109 -0 -0 -0 -0 -0 -0 -0 -0 -0 -0
-105 -94 -74 -65 -59 -72 -60 -51 -51 -64 -67 -40 -38 -44 -49 -34 -53 -44 -37 -41 -23 -34 -70 -111 -121 -123 -130 -66 -51 -61 -64 -81 -86 -0 -0 -0 -0 -0 -0 -0 -0 -0 -0
-42 -84 -26 -39 -35 -46 -52 -56 -57 -54 -52 -43 -36 -62 -44 -44 -51 -32 -40 -49 -28 -25 -20 -61 -97 -87 -92 -69 -62 -78 -69 -18 -54 -1 -12 -0 -25 -24 -0 -0 -0 -0 -0
-27 -58 -36 -50 -125 -132 -99 -90 -78 -32 -43 -31 -47 -47 -37 -45 -46 -50 -51 -46 -27 -23 -23 -31 -67 -70 -71 -74 -93 -0 -0 -0 -0 -0 -0 -0 -0 -0 -0 -0 -0 -0 -0
-4 -0 -0 -0 -0 -0 -0 -48 -85 -10 -19 -39 -56 -41 -36 -41 -53 -42 -55 -58 -47 -47 -32 -26 -34 -40 -39 -0 -0 -0 -0 -0 -0 -0 -0 -0 -0 -0 -0 -0 -0 -0 -0
-0 -0 -55 -41 -0 -0 -0 -0 -55 -34 -34 -50 -61 -41 -36 -30 -43 -40 -39 -35 -45 -53 -67 -72 -43 -49 -40 -45 -34 -0 -0 -0 -0 -0 -0 -0 -0 -0 -0 -0 -0 -0 -0
-15 -41 -218 -152 -0 -2 -48 -0 -59 -64 -75 -136 -84 -69 -64 -51 -51 -64 -47 -41 -40 -68 -115 -118 -99 -86 -90 -88 -95 -0 -0 -0 -0 -0 -0 -0 -0 -0 -0 -1 -0 -0 -0
-0 -3 -94 -4 -53 -59 -102 -127 -76 -82 -74 -75 -22 -56 -109 -115 -96 -107 -72 -53 -42 -59 -78 -82 -156 -196 -195 -168 -0 -95 -81 -0 -0 -0 -0 -0 -0 -0 -0 -0 -0 -0 -0
Wind_Speed
8 3 5 6 0 2 5 3 2 1 3 5 12 17 20 21 22 22 24 20 15 14 16 19 16 19 19 17 14 14 13 12 12 11 10 9 9 9 9 10 11 12 12
8 4 1 4 6 5 7 11 1 1 2 8 14 20 23 23 21 19 15 6 13 11 12 12 11 13 14 15 14 14 13 12 11 10 9 9 8 8 9 10 11 12 13
5 6 1 3 3 6 8 13 17 13 17 16 20 22 24 24 22 19 13 7 6 11 10 9 9 11 11 12 11 10 11 11 10 9 8 8 9 8 9 10 11 11 9
5 4 3 4 4 7 11 12 14 16 24 24 25 25 26 26 25 23 18 13 4 2 7 8 5 8 11 12 10 9 10 10 9 9 8 8 9 8 7 8 10 10 9
6 5 4 13 9 7 17 16 18 17 24 27 29 27 26 27 28 26 22 18 8 9 9 3 8 6 9 11 12 10 10 9 10 9 9 9 8 8 6 8 13 10 9
7 7 6 12 11 20 16 18 20 19 19 23 26 27 28 26 23 19 15 18 10 6 6 6 14 11 9 11 13 12 12 11 9 8 8 8 8 10 11 12 12 11 9
17 11 8 14 6 6 6 17 19 19 20 18 22 23 26 25 20 19 17 15 16 13 8 6 10 17 25 7 14 17 15 12 11 10 10 9 9 10 11 11 13 12 11
17 16 15 13 8 8 7 7 26 24 21 14 17 20 25 25 26 27 23 19 13 15 16 15 13 11 15 19 11 14 16 14 12 12 11 10 9 9 9 10 14 13 10
14 16 16 13 14 10 15 12 17 16 23 17 10 15 18 22 22 21 22 20 20 19 20 20 21 21 21 19 20 17 10 9 9 12 10 10 9 8 7 7 11 11 6
16 15 13 13 13 16 20 17 20 17 16 20 19 16 20 20 21 22 20 22 23 25 27 26 26 25 24 24 22 19 16 12 12 9 8 8 7 7 6 6 6 6 5
17 16 16 15 17 15 16 17 11 12 12 14 16 20 18 21 23 24 30 28 25 23 24 25 27 28 29 28 26 23 18 19 17 15 14 12 10 9 11 13 13 11 10
21 19 17 16 17 15 16 17 12 12 12 11 14 16 17 22 21 20 24 28 31 33 31 28 29 31 30 29 26 26 26 23 24 22 14 14 17 16 14 14 18 18 16
29 18 17 17 16 14 14 13 12 11 11 12 12 16 13 11 18 22 23 28 31 30 28 27 28 29 29 28 28 26 25 23 16 16 16 16 16 15 17 19 21 22 19
39 32 18 12 15 13 13 12 11 11 10 12 14 15 12 13 13 17 24 25 29 28 30 32 26 28 30 29 28 27 27 26 14 13 10 15 17 20 19 21 22 23 22
36 34 34 16 13 11 12 11 10 10 9 11 12 12 12 14 13 14 16 18 23 31 32 26 24 25 27 30 30 29 27 21 17 14 15 15 16 20 20 20 21 22 23
37 36 38 35 26 15 12 10 10 11 9 10 11 13 13 14 11 10 15 18 21 22 27 22 23 25 28 27 27 25 26 24 23 19 17 19 17 19 20 21 21 21 23
36 37 35 32 29 28 23 18 15 12 10 10 10 12 14 14 12 10 7 12 14 13 19 24 23 26 24 24 24 22 20 21 23 18 15 19 18 20 20 21 22 23 22
37 39 33 35 30 26 21 19 19 18 14 12 10 12 12 14 12 11 11 8 6 8 10 21 21 24 22 22 21 21 19 19 19 18 18 20 20 19 20 21 22 21 21
42 39 38 29 27 27 25 22 21 21 21 18 16 13 12 13 14 14 12 7 6 9 10 12 13 14 19 21 21 20 19 19 19 20 19 18 17 18 18 18 19 21 20
46 37 30 28 27 26 23 23 22 22 22 22 20 16 13 13 13 12 12 9 10 11 8 9 13 11 13 20 20 20 21 20 21 21 19 17 18 18 18 19 19 20 19
27 21 25 27 26 23 22 24 24 25 25 22 23 19 17 14 12 14 14 13 10 11 13 10 12 14 15 15 16 19 18 21 24 23 24 22 20 21 19 19 19 18 16
6 5 15 29 29 30 25 26 25 24 25 19 18 22 19 19 15 14 14 14 13 11 11 12 12 12 13 15 15 15 17 18 22 20 21 24 20 22 20 18 17 15 13
7 10 0 21 24 20 21 20 29 31 29 18 22 25 23 24 21 18 16 14 13 10 9 11 12 9 14 12 14 15 14 14 16 17 16 21 18 20 15 13 12 12 11
20 22 25 20 22 19 14 10 26 27 23 23 25 27 29 29 26 24 23 19 16 15 12 12 13 12 9 12 8 11 12 12 15 16 14 20 18 18 14 11 6 7 8
19 18 18 22 24 26 10 7 7 14 24 28 31 28 28 33 31 27 25 24 21 18 15 11 11 12 13 11 10 12 13 13 15 15 13 20 18 19 17 15 9 4 4
16 15 14 17 19 20 12 7 7 14 16 22 29 32 27 31 36 29 28 28 23 25 22 21 21 18 14 12 9 10 12 13 16 19 16 14 15 17 22 17 12 8 7
Wind_Direction
130 271 276 277 25 293 273 104 97 296 278 285 276 268 256 256 251 227 230 174 147 144 152 165 156 177 180 170 160 159 156 156 158 157 146 144 147 150 148 164 173 173 178
133 126 260 277 275 277 276 269 140 279 285 283 276 264 253 257 270 279 305 79 137 135 141 145 146 156 163 168 166 168 167 162 161 158 160 160 157 162 172 177 184 190 196
155 136 231 272 269 272 274 268 264 271 266 271 266 263 255 259 271 288 321 348 113 141 141 141 148 162 163 170 166 165 172 171 171 170 168 173 175 175 183 188 195 195 191
219 244 168 151 277 273 269 270 268 268 255 256 254 256 256 257 266 277 294 308 340 19 155 160 155 168 178 182 178 176 179 181 182 183 184 186 192 189 189 195 199 201 203
194 224 192 159 148 272 266 268 266 267 258 250 245 254 263 265 264 274 287 297 309 308 312 191 188 192 189 194 193 190 188 190 194 195 196 199 203 204 203 203 208 208 210
214 228 202 165 160 171 268 265 264 267 270 266 262 263 266 275 285 294 300 299 307 294 291 293 305 299 209 205 203 204 203 201 202 203 204 206 207 209 210 210 215 217 221
178 189 235 177 214 208 254 266 266 268 271 279 276 278 276 280 291 295 299 300 299 303 302 289 303 301 294 240 215 216 216 216 216 216 214 213 213 213 216 221 224 225 228
180 182 183 186 214 206 236 203 258 267 275 281 283 287 278 283 284 282 289 296 298 301 300 299 300 296 302 301 296 221 222 225 227 223 220 219 219 221 228 229 229 231 233
182 182 185 187 188 210 190 259 267 268 272 279 274 289 294 289 297 300 296 297 294 295 297 298 298 297 297 300 300 299 281 260 245 229 226 224 224 232 241 247 235 234 252
185 186 188 190 191 189 192 193 269 270 275 277 282 285 289 298 300 301 305 303 301 295 294 294 294 295 296 297 297 296 293 289 294 269 252 242 248 245 280 308 320 320 311
189 190 191 191 191 192 196 195 209 258 264 278 279 287 290 292 294 294 291 296 302 304 306 302 297 295 295 295 295 298 295 297 302 299 294 300 302 306 322 327 331 331 331
193 193 194 193 195 194 194 196 207 211 220 239 273 281 288 294 295 294 294 295 295 293 295 298 298 295 294 294 298 294 295 297 297 301 291 300 309 315 322 324 325 329 330
249 199 196 196 197 201 201 205 216 227 243 254 257 278 274 266 294 295 297 296 297 300 300 297 299 298 295 293 292 297 298 301 295 295 298 299 307 313 320 320 322 325 331
254 262 202 213 203 207 208 213 219 224 240 251 268 276 269 279 280 292 295 298 297 297 300 296 305 300 294 291 291 293 294 295 301 301 300 307 307 307 317 319 320 321 326
262 262 261 251 225 225 216 223 244 247 251 253 260 269 278 288 289 294 298 299 299 295 299 307 312 307 297 290 291 291 290 298 298 300 304 304 309 308 314 318 320 322 324
262 262 260 262 267 260 251 241 256 270 256 262 261 273 280 290 290 294 301 301 299 301 301 314 314 308 306 302 295 293 289 293 294 299 301 301 306 310 316 317 321 324 322
264 262 261 261 264 267 271 272 274 274 260 268 271 277 281 289 293 298 303 308 309 312 309 308 312 308 311 310 304 301 303 302 301 305 304 301 309 311 316 318 318 320 324
265 262 262 259 263 267 268 271 273 277 277 276 273 280 282 288 290 296 302 309 322 328 329 313 317 309 310 309 305 299 303 306 310 311 310 303 305 313 314 316 319 324 325
263 258 258 260 261 264 266 270 271 274 277 279 280 278 283 286 288 291 297 304 318 323 327 330 333 337 320 311 305 299 303 307 310 303 307 311 314 316 318 320 322 320 325
256 250 255 256 259 263 264 267 268 272 272 274 274 275 280 284 283 287 291 296 307 316 322 328 327 336 333 313 307 305 302 304 303 303 306 312 312 315 317 316 318 323 326
200 241 251 260 263 265 266 267 269 270 267 271 269 272 277 280 280 284 290 295 300 306 313 321 323 324 323 320 318 310 312 305 294 294 291 299 306 307 312 314 318 323 329
193 240 259 260 259 263 269 271 267 269 264 267 269 270 276 277 278 280 281 290 296 300 304 313 320 322 319 318 317 316 311 310 303 305 300 296 306 305 309 315 321 325 332
268 285 307 175 260 274 279 272 263 261 261 260 268 269 273 273 276 282 283 283 286 284 291 304 311 317 320 319 318 313 312 314 310 313 313 305 313 314 321 320 323 324 328
276 271 261 272 274 289 295 255 256 260 262 265 271 269 267 271 273 277 281 285 286 288 287 291 297 306 309 319 319 320 316 314 313 311 311 308 313 319 333 330 320 319 322
288 289 288 279 271 272 290 201 243 280 274 268 266 272 272 271 273 275 278 280 284 287 291 279 287 298 303 305 310 318 315 312 309 308 304 303 312 316 324 324 323 300 305
310 304 302 296 292 287 292 265 273 292 288 274 270 268 280 276 273 280 277 277 278 285 288 291 294 297 298 300 294 293 303 304 307 308 305 304 313 316 314 320 317 313 307